This demonstration page uses our WeatherBlox Daily Observations layout. Learn more.

Left ArrowRight Arrow

38.80484, -77.04692

Hourly Observations for November 27, 2020

Temp ( °F °C ) Dew Point ( °F °C ) Humidity (%) Winds ( mph kmh ) Pressure ( in mb ) Visibility ( mi km ) Precip ( " mm )
12:52 am 00:52 Cloudy 53 11.7 47 8.3 80 80 NNW 5 7 30.1 1019 10 16.0934 0 0
1:52 am 01:52 Cloudy 54 12.2 46 7.8 75 75 N 5 7 30.09 1019 10 16.0934 0 0
2:52 am 02:52 Cloudy 55 12.8 47 8.3 74 74 N 5 7 30.09 1019 10 16.0934 0 0
3:52 am 03:52 Cloudy 53 11.7 47 8.3 80 80 N 5 7 30.09 1019 10 16.0934 0 0
4:52 am 04:52 Cloudy 53 11.7 47 8.3 80 80 NNE 6 9 30.08 1019 10 16.0934 0 0
5:52 am 05:52 Cloudy 55 12.8 46 7.8 72 72 N 3 6 30.09 1019 10 16.0934 0 0
6:52 am 06:52 Cloudy 55 12.8 45 7.2 69 69 Calm 30.11 1020 10 16.0934 0 0
7:52 am 07:52 Cloudy 54 12.2 48 8.9 80 80 N 3 6 30.12 1020 10 16.0934 0 0
8:52 am 08:52 Cloudy 56 13.3 47 8.3 72 72 Calm 30.14 1021 10 16.0934 0 0
9:52 am 09:52 Cloudy 56 13.3 48 8.9 75 75 ENE 3 6 30.13 1020 10 16.0934 0 0
10:52 am 10:52 Cloudy 60 15.6 47 8.3 62 62 Calm 30.11 1020 10 16.0934 0 0
11:52 am 11:52 Cloudy 60 15.6 46 7.8 60 60 Calm 30.08 1019 10 16.0934 0 0
12:52 pm 12:52 Cloudy 61 16.1 47 8.3 60 60 Calm 30.06 1018 10 16.0934 0 0
1:52 pm 13:52 Cloudy 60 15.6 46 7.8 60 60 Calm 30.04 1017 10 16.0934 0 0
2:52 pm 14:52 Cloudy 61 16.1 47 8.3 60 60 NNE 5 7 30.03 1017 10 16.0934 0 0
3:52 pm 15:52 Mostly Cloudy 60 15.6 47 8.3 62 62 NNE 5 7 30.01 1016 10 16.0934 0 0
4:52 pm 16:52 Mostly Cloudy 58 14.4 45 7.2 62 62 NNW 3 6 30.01 1016 10 16.0934 0 0
5:52 pm 17:52 Cloudy 57 13.9 46 7.8 67 67 N 3 6 30.02 1017 10 16.0934 0 0
6:52 pm 18:52 Cloudy 57 13.9 47 8.3 69 69 NNE 3 6 30.03 1017 10 16.0934 0 0
7:52 pm 19:52 Cloudy 56 13.3 46 7.8 70 70 ESE 3 6 30.02 1017 10 16.0934 0 0
8:52 pm 20:52 Cloudy 56 13.3 46 7.8 70 70 Calm 30.03 1017 10 16.0934 0 0
9:52 pm 21:52 Mostly Cloudy 57 13.9 45 7.2 64 64 Calm 30.02 1017 10 16.0934 0 0
10:52 pm 22:52 Mostly Cloudy 56 13.3 47 8.3 72 72 Calm 30.02 1017 10 16.0934 0 0
11:52 pm 23:52 Mostly Cloudy 52 11.1 47 8.3 83 83 Calm 30.02 1017 10 16.0934 0 0

Powered by AerisWeather